This demonstration page uses our WeatherBlox Daily Observations layout. Learn more.

38.88101, -77.10428

Hourly Observations for October 10, 2019

Temp ( °F °C ) Dew Point ( °F °C ) Humidity (%) Winds ( mph kmh ) Pressure ( in mb ) Visibility ( mi km ) Precip ( " mm )
12:52 am 00:52 Cloudy 59 15 48 8.9 67 67 ENE 9 15 30.24 1024 10 16.09344 0 0
1:52 am 01:52 Cloudy 59 15 48 8.9 67 67 NE 12 19 30.24 1024 10 16.09344 0 0
2:52 am 02:52 Cloudy 58 14.4 48 8.9 70 70 NNE 9 15 30.24 1024 10 16.09344 0 0
3:52 am 03:52 Cloudy 58 14.4 48 8.9 70 70 N 9 15 30.24 1024 10 16.09344 0 0
4:52 am 04:52 Cloudy 57 13.9 47 8.3 69 69 NNE 8 13 30.24 1024 10 16.09344 0 0
5:52 am 05:52 Cloudy 58 14.4 47 8.3 67 67 NNE 9 15 30.24 1024 10 16.09344 0 0
6:00 am 06:00 Cloudy 57 13.9 46 7.8 67 67 N 9 15 30.27 1025 10 16.09344 0 0
6:52 am 06:52 Partly Cloudy 56 13.3 46 7.8 70 70 N 13 20 30.24 1024 10 16.09344 0 0
7:52 am 07:52 Mostly Cloudy 57 13.9 47 8.3 69 69 N 12 19 30.24 1024 10 16.09344 0 0
8:52 am 08:52 Cloudy 59 15 46 7.8 62 62 NNE 15 24 30.27 1025 10 16.09344 0 0
9:52 am 09:52 Partly Cloudy 62 16.7 46 7.8 56 56 N 12 19 30.27 1025 10 16.09344 0 0
10:52 am 10:52 Mostly Sunny 65 18.3 47 8.3 52 52 N 8 13 30.24 1024 10 16.09344 0 0
11:52 am 11:52 Mostly Sunny 68 20 48 8.9 49 49 WNW 7 11 30.21 1023 10 16.09344 0 0
12:52 pm 12:52 Mostly Sunny 72 22.2 50 10 46 46 NW 7 11 30.21 1023 10 16.09344 0 0
1:52 pm 13:52 Mostly Sunny 74 23.3 50 10 43 43 WNW 7 11 30.18 1022 10 16.09344 0 0
2:52 pm 14:52 Partly Cloudy 78 25.6 51 10.6 39 39 NNW 10 17 30.18 1022 10 16.09344 0 0
3:52 pm 15:52 Partly Cloudy 78 25.6 51 10.6 39 39 N 8 13 30.15 1021 10 16.09344 0 0
4:52 pm 16:52 Partly Cloudy 78 25.6 51 10.6 39 39 NNW 5 7 30.12 1020 10 16.09344 0 0
5:52 pm 17:52 Partly Cloudy 76 24.4 52 11.1 43 43 N 13 20 30.12 1020 10 16.09344 0 0
6:52 pm 18:52 Mostly Clear 72 22.2 53 11.7 52 52 N 10 17 30.15 1021 10 16.09344 0 0
7:52 pm 19:52 Mostly Clear 71 21.7 53 11.7 53 53 N 10 17 30.15 1021 10 16.09344 0 0
8:52 pm 20:52 Mostly Clear 68 20 53 11.7 59 59 N 9 15 30.15 1021 10 16.09344 0 0
9:52 pm 21:52 Mostly Clear 67 19.4 54 12.2 63 63 N 9 15 30.15 1021 10 16.09344 0 0
10:52 pm 22:52 Mostly Cloudy 67 19.4 54 12.2 63 63 N 12 19 30.15 1021 10 16.09344 0 0
11:52 pm 23:52 Clear 66 18.9 52 11.1 61 61 NNE 8 13 30.15 1021 10 16.09344 0 0

Powered by AerisWeather